カタログに戻る

SL-12 R/B

AUX MOTOR

運用中HEO
NORAD 23403·ROCKET BODY·🇷🇺 Russia

打ち上げ Nov 20, 1994 から Baikonur Cosmodrome

Loading…

次のパス (今後24時間)

TLE

最新Source: Space-Track

元期: Sep 13, 2026, 20:53 UTC

1 23403U 94076H   26256.87046630 -.00000002  00000-0  22768-3 0  9994
2 23403  65.5472 291.1837 5564637 104.4211  18.6993  4.27489323494480

AllMySatでSL-12 R/Bをリアルタイム追跡

Download on the App Store